Breckenridge, TX

1:28 PM CDT on July 27, 2016 (GMT -0500)
Stephens County

Weather History for KBKD - November, 2012

Change the Weather History Date:

Friday, November 9, 2012

  Actual Average (KABI) Record (KABI)
Temperature  
Mean Temperature 74 °F 58 °F  
Max Temperature 84 °F 69 °F 90 °F (2006)
Min Temperature 64 °F 46 °F 27 °F (1956)
Degree Days  
Heating Degree Days 0 8  
Month to date heating degree days 65  
Since 1 July heating degree days 169  
Cooling Degree Days 9 1  
Month to date cooling degree days 11  
Year to date cooling degree days 2400  
Growing Degree Days 24 (Base 50)    
Moisture  
Dew Point 55 °F    
Average Humidity 55    
Maximum Humidity 83    
Minimum Humidity 35    
Precipitation  
Precipitation 0.00 in 0.05 in 1.12 in (1952)
Month to date precipitation 0.53  
Year to date precipitation 22.71  
Sea Level Pressure  
Sea Level Pressure 29.93 in    
Wind  
Wind Speed 17 mph (South)    
Max Wind Speed 23 mph    
Max Gust Speed 33 mph    
Visibility 10 miles    
Events      
T = Trace of Precipitation, MM = Missing Value Source: NWS Daily Summary

Daily Weather History Graph

Daily Weather History Graph

Search for Another Location

Airport or City:

Trip Planner

Search our weather history database for the weather conditions in past years. The results will help you decide how hot, cold, wet, or windy it might be!

Date:

Astronomy

Nov. 09, 2012 Rise Set
Actual Time 7:00 AM CST 5:37 PM CST
Civil Twilight 6:34 AM CST 6:03 PM CST
Nautical Twilight 6:05 AM CST 6:33 PM CST
Astronomical Twilight 5:36 AM CST 7:02 PM CST
Moon 2:15 AM CST (11/9) 2:39 PM CST (11/9)
Length of Visible Light 11h 28m
Length of Day
10h 37m
Waning Crescent, 23% of the Moon is Illuminated
Nov 9
Waning Crescent
Nov 13
New
Nov 20
First Quarter
Nov 28
Full
Dec 6
Last Quarter

Hourly Weather History & Observations

Time (CST) Temp. Heat Index Dew Point Humidity Pressure Visibility Wind Dir Wind Speed Gust Speed Precip Events Conditions
12:15 AM 71.6 °F - 51.8 °F 50% 29.95 in 10.0 mi South 15.0 mph 26.5 mph N/A   Clear
12:35 AM 69.8 °F - 51.8 °F 53% 29.95 in 10.0 mi South 17.3 mph 23.0 mph N/A   Clear
12:55 AM 69.8 °F - 53.6 °F 56% 29.95 in 10.0 mi South 20.7 mph 26.5 mph N/A   Clear
1:15 AM 69.8 °F - 55.4 °F 60% 29.95 in 10.0 mi South 18.4 mph 25.3 mph N/A   Clear
1:35 AM 68.0 °F - 55.4 °F 64% 29.95 in 10.0 mi South 15.0 mph 23.0 mph N/A   Clear
1:55 AM 68.0 °F - 55.4 °F 64% 29.95 in 10.0 mi South 18.4 mph - N/A   Clear
2:15 AM 68.0 °F - 55.4 °F 64% 29.95 in 10.0 mi South 15.0 mph 20.7 mph N/A   Clear
2:35 AM 68.0 °F - 57.2 °F 68% 29.95 in 10.0 mi South 12.7 mph 20.7 mph N/A   Clear
2:55 AM 68.0 °F - 57.2 °F 68% 29.95 in 10.0 mi South 12.7 mph 19.6 mph N/A   Clear
3:15 AM 66.2 °F - 59.0 °F 78% 29.95 in 10.0 mi South 13.8 mph 20.7 mph N/A   Clear
3:35 AM 66.2 °F - 59.0 °F 78% 29.94 in 10.0 mi South 17.3 mph 23.0 mph N/A   Clear
3:55 AM 66.2 °F - 59.0 °F 78% 29.94 in 10.0 mi South 16.1 mph 21.9 mph N/A   Clear
4:15 AM 64.4 °F - 59.0 °F 83% 29.94 in 10.0 mi South 15.0 mph 25.3 mph N/A   Clear
4:35 AM 64.4 °F - 59.0 °F 83% 29.94 in 10.0 mi South 15.0 mph 25.3 mph N/A   Clear
4:55 AM 64.4 °F - 59.0 °F 83% 29.94 in 10.0 mi South 15.0 mph 19.6 mph N/A   Clear
5:15 AM 64.4 °F - 59.0 °F 83% 29.94 in 10.0 mi South 15.0 mph 23.0 mph N/A   Clear
5:55 AM 64.4 °F - 59.0 °F 83% 29.94 in 10.0 mi South 16.1 mph 23.0 mph N/A   Clear
6:15 AM 64.4 °F - 59.0 °F 83% 29.94 in 10.0 mi South 16.1 mph - N/A   Clear
6:35 AM 64.4 °F - 59.0 °F 83% 29.93 in 10.0 mi South 12.7 mph 20.7 mph N/A   Clear
6:55 AM 64.4 °F - 57.2 °F 77% 29.94 in 10.0 mi South 16.1 mph 21.9 mph N/A   Clear
7:35 AM 64.4 °F - 57.2 °F 77% 29.95 in 10.0 mi South 16.1 mph 23.0 mph N/A   Clear
7:55 AM 64.4 °F - 57.2 °F 77% 29.96 in 10.0 mi South 15.0 mph 25.3 mph N/A   Clear
8:15 AM 66.2 °F - 57.2 °F 73% 29.96 in 10.0 mi SSW 18.4 mph 23.0 mph N/A   Clear
8:35 AM 68.0 °F - 59.0 °F 73% 29.97 in 10.0 mi South 17.3 mph 24.2 mph N/A   Clear
8:55 AM 69.8 °F - 59.0 °F 68% 29.97 in 10.0 mi SSW 18.4 mph 21.9 mph N/A   Clear
9:15 AM 69.8 °F - 59.0 °F 68% 29.97 in 10.0 mi South 18.4 mph 24.2 mph N/A   Clear
9:35 AM 71.6 °F - 59.0 °F 64% 29.97 in 10.0 mi South 23.0 mph 28.8 mph N/A   Clear
9:55 AM 71.6 °F - 59.0 °F 64% 29.97 in 10.0 mi South 16.1 mph 28.8 mph N/A   Clear
10:15 AM 73.4 °F - 59.0 °F 61% 29.96 in 10.0 mi South 20.7 mph 26.5 mph N/A   Clear
10:55 AM 77.0 °F - 57.2 °F 50% 29.97 in 10.0 mi SSW 18.4 mph 27.6 mph N/A   Clear
11:15 AM 77.0 °F - 57.2 °F 50% 29.96 in 10.0 mi South 18.4 mph 33.4 mph N/A   Clear
11:35 AM 78.8 °F - 57.2 °F 47% 29.96 in 10.0 mi SSW 20.7 mph 24.2 mph N/A   Clear
11:55 AM 80.6 °F 80.5 °F 55.4 °F 42% 29.95 in 10.0 mi SSW 20.7 mph 27.6 mph N/A   Clear
12:15 PM 80.6 °F 80.5 °F 55.4 °F 42% 29.94 in 10.0 mi SSW 18.4 mph 29.9 mph N/A   Clear
12:35 PM 80.6 °F 80.5 °F 55.4 °F 42% 29.93 in 10.0 mi SSW 21.9 mph 31.1 mph N/A   Clear
12:55 PM 82.4 °F 81.7 °F 55.4 °F 39% 29.91 in 10.0 mi SSW 18.4 mph 27.6 mph N/A   Clear
1:15 PM 82.4 °F 81.4 °F 53.6 °F 37% 29.91 in 10.0 mi SW 19.6 mph 24.2 mph N/A   Clear
1:35 PM 82.4 °F 81.4 °F 53.6 °F 37% 29.90 in 10.0 mi SSW 15.0 mph 24.2 mph N/A   Clear
1:55 PM 82.4 °F 81.4 °F 53.6 °F 37% 29.89 in 10.0 mi SSW 18.4 mph 27.6 mph N/A   Clear
2:15 PM 82.4 °F - 51.8 °F 35% 29.88 in 10.0 mi South 15.0 mph 27.6 mph N/A   Clear
2:35 PM 82.4 °F - 51.8 °F 35% 29.88 in 10.0 mi SSW 21.9 mph 28.8 mph N/A   Clear
2:55 PM 84.2 °F 82.8 °F 53.6 °F 35% 29.88 in 10.0 mi SSW 15.0 mph 24.2 mph N/A   Clear
3:15 PM 82.4 °F - 51.8 °F 35% 29.88 in 10.0 mi South 21.9 mph 28.8 mph N/A   Clear
3:35 PM 82.4 °F - 51.8 °F 35% 29.87 in 10.0 mi South 18.4 mph 26.5 mph N/A   Clear
3:55 PM 82.4 °F - 51.8 °F 35% 29.87 in 10.0 mi SSW 18.4 mph 24.2 mph N/A   Clear
4:15 PM 82.4 °F - 51.8 °F 35% 29.87 in 10.0 mi SSW 15.0 mph 26.5 mph N/A   Clear
4:35 PM 82.4 °F 81.4 °F 53.6 °F 37% 29.87 in 10.0 mi South 12.7 mph 24.2 mph N/A   Clear
4:55 PM 80.6 °F - 51.8 °F 37% 29.88 in 10.0 mi South 15.0 mph 23.0 mph N/A   Clear
5:15 PM 80.6 °F - 51.8 °F 37% 29.88 in 10.0 mi South 17.3 mph 21.9 mph N/A   Clear
5:35 PM 78.8 °F - 51.8 °F 39% 29.87 in 10.0 mi South 13.8 mph 19.6 mph N/A   Clear
5:55 PM 78.8 °F - 51.8 °F 39% 29.88 in 10.0 mi South 11.5 mph - N/A   Clear
6:15 PM 78.8 °F - 51.8 °F 39% 29.88 in 10.0 mi South 11.5 mph - N/A   Clear
6:35 PM 77.0 °F - 51.8 °F 41% 29.89 in 10.0 mi South 11.5 mph 16.1 mph N/A   Clear
6:55 PM 77.0 °F - 51.8 °F 41% 29.88 in 10.0 mi SSE 15.0 mph 21.9 mph N/A   Clear
7:15 PM 77.0 °F - 51.8 °F 41% 29.89 in 10.0 mi South 11.5 mph 21.9 mph N/A   Clear
7:35 PM 77.0 °F - 51.8 °F 41% 29.90 in 10.0 mi South 16.1 mph 24.2 mph N/A   Clear
7:55 PM 77.0 °F - 51.8 °F 41% 29.91 in 10.0 mi South 16.1 mph 25.3 mph N/A   Clear
8:15 PM 77.0 °F - 51.8 °F 41% 29.91 in 10.0 mi South 17.3 mph 27.6 mph N/A   Clear
8:35 PM 73.4 °F - 51.8 °F 47% 29.92 in 10.0 mi South 16.1 mph 21.9 mph N/A   Clear
8:55 PM 73.4 °F - 51.8 °F 47% 29.92 in 10.0 mi South 16.1 mph 23.0 mph N/A   Clear
9:15 PM 73.4 °F - 53.6 °F 50% 29.93 in 10.0 mi South 16.1 mph 26.5 mph N/A   Clear
9:35 PM 73.4 °F - 53.6 °F 50% 29.93 in 10.0 mi South 15.0 mph 24.2 mph N/A   Clear
9:55 PM 73.4 °F - 53.6 °F 50% 29.93 in 10.0 mi South 16.1 mph 25.3 mph N/A   Clear
10:15 PM 73.4 °F - 53.6 °F 50% 29.93 in 10.0 mi South 19.6 mph 24.2 mph N/A   Clear
10:35 PM 71.6 °F - 53.6 °F 53% 29.93 in 10.0 mi South 15.0 mph 23.0 mph N/A   Clear
10:55 PM 71.6 °F - 53.6 °F 53% 29.93 in 10.0 mi South 16.1 mph 23.0 mph N/A   Clear
11:15 PM 71.6 °F - 53.6 °F 53% 29.92 in 10.0 mi South 15.0 mph 25.3 mph N/A   Clear
11:35 PM 71.6 °F - 53.6 °F 53% 29.92 in 10.0 mi South 19.6 mph 26.5 mph N/A   Clear
11:55 PM 71.6 °F - 53.6 °F 53% 29.92 in 10.0 mi South 19.6 mph 26.5 mph N/A   Clear